Location: Haliburton Scout Reserve
(45.0900°N, 78.3200°W)
Time: 19:12:44
(UTC-05:00)

IDEFIX/ARIANE 42P - Visible Passes

Search period start: 28 January 2015 00:00
Search period end: 07 February 2015 00:00
Orbit: 786 x 803 km, 98.3° (Epoch: 28 January)

Date Brightness Start Highest point End Pass type
(mag) Time Alt. Az. Time Alt. Az. Time Alt. Az.
28 Jan 3.8 18:06:24 10° ESE 18:10:05 20° ENE 18:13:56 10° NNE visible
28 Jan 3.0 19:44:07 10° S 19:49:17 62° W 19:54:31 10° NNW visible
29 Jan 2.4 19:15:52 10° SSE 19:21:04 77° ENE 19:26:22 10° N visible
29 Jan 5.3 20:58:25 10° WSW 21:01:25 15° W 21:04:10 10° NW visible
30 Jan 2.8 18:48:02 10° SE 18:52:58 44° ENE 18:57:58 10° N visible
30 Jan 4.5 20:28:26 10° SSW 20:32:49 26° W 20:37:07 10° NW visible
31 Jan 5.6 07:00:45 10° NE 07:03:26 14° E 07:06:23 10° ESE visible
31 Jan 3.5 18:20:42 10° ESE 18:24:57 27° ENE 18:29:20 10° N visible
31 Jan 3.6 19:59:22 10° S 20:04:23 45° W 20:09:26 10° NNW visible
01 Feb 4.0 17:53:59 10° E 17:57:03 16° ENE 18:00:19 10° NNE visible
01 Feb 2.6 19:30:51 10° S 19:36:06 80° WSW 19:41:24 10° NNW visible
01 Feb 5.6 21:15:51 10° W 21:16:43 10° W 21:17:14 10° WNW visible
02 Feb 2.5 19:02:47 10° SSE 19:07:55 60° ENE 19:13:08 10° N visible
02 Feb 5.0 20:44:16 10° SW 20:48:02 19° W 20:51:39 10° NW visible
03 Feb 3.1 18:35:10 10° SE 18:39:52 35° ENE 18:44:38 10° N visible
03 Feb 4.1 20:14:47 10° SSW 20:19:31 33° W 20:24:14 10° NNW visible
04 Feb 6.0 06:48:58 10° ENE 06:50:02 11° E 06:51:27 10° E visible
04 Feb 3.7 18:08:05 10° ESE 18:11:54 21° ENE 18:15:52 10° NNE visible
04 Feb 3.1 19:45:59 10° S 19:51:08 58° W 19:56:22 10° NNW visible
05 Feb 2.5 19:17:40 10° SSE 19:22:55 81° ENE 19:28:13 10° NNW visible
05 Feb 5.4 21:00:31 10° WSW 21:03:18 14° W 21:05:49 10° WNW visible
06 Feb 2.8 18:49:48 10° SE 18:54:47 47° ENE 18:59:51 10° N visible
06 Feb 4.7 20:30:24 10° SSW 20:34:41 25° W 20:38:55 10° NW visible
